Portada
METAR-TAF:

METAR-TAF

Aeroports :

Schenectady County Airport

Schenectady, Nova York, Estats Units d'Amèrica

latitud: 42-51N, longitud: 073-56W, altitud: 115 m

Observació

L'informe es va fer fa 1 hora i 20 minuts, a les 18:59 UTC
Vent 8 kt del Sud amb ràfegues de 18 kt
Temperatura 8°C
Humitat 46%
Pressió 1009 hPa
Visibilitat: 24.1 km
Cel clar

METAR: KSCH 241859Z 18008G18KT 15SM CLR 08/M03 A2981

Hora: 15:19 (20:19 UTC)


TAF: manca

Observacions i pronòstics meteorològics de més de 4000 aeroports (METAR i TAF).

Les estacions disponibles són els punts grocs i vermells al mapa.

Posi el ratolí al punt desitjat per veure el nom de l'estació.

Feu clic per veure les observacions i els pronòstics meteorològics.

Per canviar el mapa: feu clic els botons verds amb una creu de color negre per apropar; al botó verd amb un guió per allunyar la imatge; o en les fletxes verdes per a mapes adjacents.


METAR-TAF: